TimePST,TemperatureF,Dew PointF,Humidity,Sea Level PressureIn,VisibilityMPH,Wind Direction,Wind SpeedMPH,Gust SpeedMPH,PrecipitationIn,Events,Conditions,WindDirDegrees,DateUTC
12:53 AM,45.0,39.0,80,29.53,10.0,Variable,4.6,-,0.00,Rain,Light Rain,0,2012-11-21 08:53:00
1:53 AM,45.0,41.0,86,29.55,8.0,WSW,4.6,-,0.02,Rain,Light Rain,240,2012-11-21 09:53:00
2:53 AM,45.0,41.0,86,29.55,10.0,SE,4.6,-,0.04,,Overcast,130,2012-11-21 10:53:00
3:53 AM,45.0,41.0,86,29.55,10.0,SE,5.8,-,0.01,Rain,Light Rain,140,2012-11-21 11:53:00
4:53 AM,46.9,41.0,80,29.58,10.0,South,10.4,19.6,0.01,Rain,Light Rain,170,2012-11-21 12:53:00
5:46 AM,46.4,39.2,76,29.61,9.0,South,15.0,27.6,0.07,Rain,Light Rain,190,2012-11-21 13:46:00
5:53 AM,46.0,39.9,79,29.64,7.0,WSW,17.3,25.3,0.09,Rain,Light Rain,240,2012-11-21 13:53:00
6:53 AM,44.1,39.0,82,29.69,10.0,South,13.8,27.6,0.01,Rain,Light Rain,180,2012-11-21 14:53:00
7:53 AM,44.6,39.2,81,29.76,10.0,South,15.0,24.2,N/A,,Mostly Cloudy,180,2012-11-21 15:53:00
8:22 AM,46.4,39.2,76,29.77,10.0,South,16.1,24.2,N/A,,Mostly Cloudy,170,2012-11-21 16:22:00
8:53 AM,46.0,39.0,76,29.80,10.0,South,13.8,24.2,N/A,,Mostly Cloudy,170,2012-11-21 16:53:00
9:53 AM,44.1,39.0,82,29.83,10.0,South,10.4,-,0.07,Rain,Light Rain,180,2012-11-21 17:53:00
10:53 AM,45.0,39.9,82,29.86,7.0,SSE,10.4,-,0.09,Rain,Light Rain,160,2012-11-21 18:53:00
11:53 AM,44.1,39.0,82,29.88,10.0,South,10.4,24.2,0.05,Rain,Light Rain,190,2012-11-21 19:53:00
12:02 PM,44.6,39.2,81,29.88,9.0,South,12.7,20.7,0.00,Rain,Light Rain,170,2012-11-21 20:02:00
12:53 PM,46.0,39.0,76,29.89,10.0,South,13.8,21.9,0.00,,Overcast,180,2012-11-21 20:53:00
1:00 PM,46.4,39.2,76,29.90,10.0,South,13.8,21.9,0.00,Rain,Light Rain,190,2012-11-21 21:00:00
1:53 PM,44.1,37.9,79,29.94,10.0,South,10.4,-,0.11,,Mostly Cloudy,180,2012-11-21 21:53:00
2:53 PM,46.0,39.9,79,29.96,10.0,South,11.5,24.2,0.02,,Mostly Cloudy,190,2012-11-21 22:53:00
3:53 PM,46.0,37.9,73,30.01,10.0,South,11.5,19.6,N/A,,Mostly Cloudy,180,2012-11-21 23:53:00
4:53 PM,45.0,37.0,74,30.05,10.0,SSW,6.9,19.6,N/A,,Mostly Cloudy,200,2012-11-22 00:53:00
5:53 PM,45.0,37.9,76,30.10,10.0,Variable,3.5,-,N/A,,Scattered Clouds,0,2012-11-22 01:53:00
6:05 PM,46.4,39.2,76,30.11,10.0,Variable,5.8,-,N/A,,Mostly Cloudy,0,2012-11-22 02:05:00
6:53 PM,45.0,39.0,80,30.14,10.0,SSE,6.9,-,N/A,,Mostly Cloudy,150,2012-11-22 02:53:00
7:53 PM,45.0,37.9,76,30.18,10.0,South,9.2,-,N/A,,Mostly Cloudy,180,2012-11-22 03:53:00
8:53 PM,45.0,39.0,80,30.22,10.0,SSE,8.1,-,N/A,,Mostly Cloudy,150,2012-11-22 04:53:00
9:53 PM,44.1,37.9,79,30.26,10.0,SSE,6.9,-,N/A,,Mostly Cloudy,160,2012-11-22 05:53:00
10:12 PM,41.0,35.6,81,30.26,10.0,SE,5.8,-,N/A,,Scattered Clouds,130,2012-11-22 06:12:00
10:53 PM,43.0,37.0,80,30.28,10.0,ESE,6.9,-,N/A,,Mostly Cloudy,120,2012-11-22 06:53:00
11:39 PM,41.0,35.6,81,30.30,10.0,SSE,8.1,-,N/A,,Scattered Clouds,150,2012-11-22 07:39:00
11:53 PM,39.0,36.0,89,30.30,10.0,SSE,6.9,-,N/A,,Clear,150,2012-11-22 07:53:00